Location: Coll
(42.4728°N, 0.7714°E)
Time: 11:56:48
(UTC+00:00)

Cosmos 2344 - Pass Details

Date: 23 October 2020
Orbit: 1246 x 2997 km, 63.3° (Epoch: 30 November)

Event Time Altitude Azimuth Distance (km) Brightness Sun altitude
Exits shadow 03:25:13 61° 172° (S) 1,397 3.6 -32.6°
Maximum altitude 03:26:25 71° 121° (ESE) 1,312 3.6 -32.4°
Drops below altitude 10° 03:34:08 10° 39° (NE) 3,387 6.4 -31.0°
Sets 03:37:08 0° 38° (NE) 4,489 7.1 -30.5°
